• In Netherlands
  • List of Countries
  • For 7 days
  • Water Temperature
  • Satellite Maps
  • Weather Map
  • Weather Widgets
  • user-avatar
    Login

    Hourly Weather Giumri

    Today, 22 June, Thursday

    Time Temperature Precipitation Wind Pressure Humidity
    00:00 +12°C° 0.5 mm 2 mps 630 mmHg 94%
    01:00 +12°C° 0.5 mm 2 mps 630 mmHg 94%
    02:00 +12°C° 0.5 mm 2 mps 630 mmHg 95%
    03:00 +12°C° 0 mm 2 mps 630 mmHg 96%
    04:00 +12°C° 0.5 mm 2 mps 630 mmHg 95%
    05:00 +12°C° 0.5 mm 2 mps 630 mmHg 93%
    06:00 +13°C° 0.5 mm 2 mps 631 mmHg 92%
    07:00 +14°C° 0.5 mm 1 mps 631 mmHg 87%
    08:00 +15°C° 0.5 mm 1 mps 632 mmHg 82%
    09:00 +16°C° 0 mm 1 mps 632 mmHg 77%
    10:00 +17°C° 0.9 mm 2 mps 632 mmHg 76%
    11:00 +17°C° 0.9 mm 2 mps 632 mmHg 74%
    12:00 +18°C° 0.9 mm 2 mps 632 mmHg 73%
    13:00 +18°C° 1.1 mm 2 mps 632 mmHg 74%
    14:00 +18°C° 1.1 mm 2 mps 632 mmHg 75%
    15:00 +18°C° 1.1 mm 2 mps 632 mmHg 76%
    16:00 +17°C° 0.8 mm 2 mps 632 mmHg 78%
    17:00 +17°C° 0.8 mm 2 mps 633 mmHg 79%
    18:00 +16°C° 0.8 mm 2 mps 633 mmHg 80%
    19:00 +15°C° 0.3 mm 2 mps 633 mmHg 85%
    20:00 +14°C° 0.3 mm 2 mps 633 mmHg 89%
    21:00 +12°C° 0.3 mm 2 mps 633 mmHg 93%
    22:00 +12°C° 0.1 mm 2 mps 633 mmHg 94%
    23:00 +10°C° 0.1 mm 2 mps 633 mmHg 94%

    Tomorrow, 23 June, Friday

    Time Temperature Precipitation Wind Pressure Humidity
    00:00 +9°C° 0.1 mm 2 mps 633 mmHg 94%
    01:00 +9°C° 0 mm 2 mps 633 mmHg 95%
    02:00 +9°C° 0 mm 2 mps 633 mmHg 95%
    03:00 +8°C° 0 mm 2 mps 633 mmHg 95%
    04:00 +9°C° 0 mm 2 mps 633 mmHg 93%
    05:00 +11°C° 0 mm 1 mps 634 mmHg 91%
    06:00 +12°C° 0 mm 1 mps 634 mmHg 89%
    07:00 +14°C° 0 mm 1 mps 635 mmHg 80%
    08:00 +16°C° 0 mm 1 mps 635 mmHg 71%
    09:00 +19°C° 0 mm 1 mps 636 mmHg 61%
    10:00 +20°C° 0.1 mm 1 mps 636 mmHg 58%
    11:00 +21°C° 0.1 mm 1 mps 636 mmHg 54%
    12:00 +22°C° 0.1 mm 1 mps 636 mmHg 50%
    13:00 +22°C° 0.3 mm 1 mps 636 mmHg 52%
    14:00 +21°C° 0.3 mm 2 mps 636 mmHg 53%
    15:00 +23°C° 0.3 mm 2 mps 636 mmHg 55%
    16:00 +21°C° 0.6 mm 2 mps 635 mmHg 60%
    17:00 +20°C° 0.6 mm 2 mps 635 mmHg 66%
    18:00 +19°C° 0.6 mm 2 mps 635 mmHg 72%
    19:00 +17°C° 0.4 mm 2 mps 635 mmHg 78%
    20:00 +14°C° 0.4 mm 2 mps 634 mmHg 85%
    21:00 +12°C° 0.4 mm 2 mps 634 mmHg 92%
    22:00 +12°C° 0.1 mm 2 mps 634 mmHg 92%
    23:00 +10°C° 0.1 mm 2 mps 634 mmHg 93%

    Day after tomorrow, 24 June, Saturday

    Time Temperature Precipitation Wind Pressure Humidity
    00:00 +10°C° 0.1 mm 2 mps 634 mmHg 94%
    01:00 +9°C° 0 mm 2 mps 634 mmHg 94%
    02:00 +10°C° 0 mm 1 mps 634 mmHg 95%
    03:00 +10°C° 0 mm 1 mps 634 mmHg 95%
    04:00 +11°C° 0 mm 1 mps 634 mmHg 93%
    05:00 +12°C° 0 mm 1 mps 634 mmHg 92%
    06:00 +12°C° 0 mm 1 mps 635 mmHg 90%
    07:00 +15°C° 0 mm 1 mps 635 mmHg 79%
    08:00 +18°C° 0 mm 1 mps 636 mmHg 67%
    09:00 +20°C° 0 mm 1 mps 636 mmHg 56%
    10:00 +22°C° 0 mm 1 mps 636 mmHg 51%
    11:00 +23°C° 0 mm 1 mps 636 mmHg 46%
    12:00 +25°C° 0 mm 1 mps 637 mmHg 40%
    13:00 +25°C° 0 mm 1 mps 636 mmHg 40%
    14:00 +26°C° 0 mm 1 mps 636 mmHg 39%
    15:00 +26°C° 0 mm 1 mps 636 mmHg 39%
    16:00 +25°C° 0 mm 1 mps 635 mmHg 44%
    17:00 +24°C° 0 mm 1 mps 635 mmHg 50%
    18:00 +23°C° 0 mm 1 mps 635 mmHg 56%
    19:00 +21°C° 0 mm 1 mps 634 mmHg 67%
    20:00 +18°C° 0 mm 1 mps 634 mmHg 77%
    21:00 +14°C° 0 mm 2 mps 633 mmHg 87%
    22:00 +14°C° 0.1 mm 2 mps 633 mmHg 90%
    23:00 +14°C° 0.1 mm 2 mps 633 mmHg 92%

    25 June, Sunday

    Time Temperature Precipitation Wind Pressure Humidity
    00:00 +14°C° 0.1 mm 2 mps 634 mmHg 95%
    01:00 +13°C° 0.1 mm 2 mps 633 mmHg 95%
    02:00 +12°C° 0.1 mm 1 mps 633 mmHg 95%
    03:00 +12°C° 0.1 mm 1 mps 633 mmHg 95%
    04:00 +13°C° 0 mm 1 mps 633 mmHg 92%
    05:00 +14°C° 0 mm 1 mps 634 mmHg 89%
    06:00 +15°C° 0 mm 1 mps 634 mmHg 86%
    07:00 +18°C° 0 mm 1 mps 635 mmHg 72%
    08:00 +20°C° 0 mm 1 mps 636 mmHg 57%
    09:00 +23°C° 0 mm 1 mps 636 mmHg 43%
    10:00 +24°C° 0 mm 1 mps 636 mmHg 39%
    11:00 +25°C° 0 mm 2 mps 637 mmHg 36%
    12:00 +27°C° 0 mm 2 mps 637 mmHg 32%
    13:00 +27°C° 0 mm 2 mps 637 mmHg 33%
    14:00 +27°C° 0 mm 2 mps 636 mmHg 34%
    15:00 +27°C° 0 mm 2 mps 636 mmHg 35%
    16:00 +26°C° 0 mm 2 mps 636 mmHg 42%
    17:00 +25°C° 0 mm 2 mps 636 mmHg 48%
    18:00 +24°C° 0 mm 2 mps 636 mmHg 54%
    19:00 +20°C° 0 mm 2 mps 635 mmHg 65%
    20:00 +17°C° 0 mm 2 mps 635 mmHg 75%
    21:00 +14°C° 0 mm 2 mps 634 mmHg 85%
    22:00 +14°C° 0.1 mm 2 mps 634 mmHg 86%
    23:00 +13°C° 0.1 mm 2 mps 634 mmHg 87%

    26 June, Monday

    Time Temperature Precipitation Wind Pressure Humidity
    00:00 +13°C° 0.1 mm 2 mps 634 mmHg 88%
    01:00 +12°C° 0 mm 2 mps 634 mmHg 88%
    02:00 +12°C° 0 mm 1 mps 634 mmHg 88%
    03:00 +11°C° 0 mm 1 mps 634 mmHg 88%
    04:00 +12°C° 0 mm 1 mps 635 mmHg 85%
    05:00 +13°C° 0 mm 1 mps 635 mmHg 82%
    06:00 +14°C° 0 mm 1 mps 636 mmHg 79%
    07:00 +18°C° 0 mm 1 mps 636 mmHg 70%
    08:00 +20°C° 0 mm 1 mps 637 mmHg 61%
    09:00 +23°C° 0 mm 1 mps 637 mmHg 52%
    10:00 +24°C° 0 mm 2 mps 638 mmHg 49%
    11:00 +25°C° 0 mm 2 mps 638 mmHg 45%
    12:00 +27°C° 0 mm 2 mps 638 mmHg 42%
    13:00 +27°C° 0 mm 2 mps 638 mmHg 41%
    14:00 +27°C° 0 mm 2 mps 637 mmHg 41%
    15:00 +28°C° 0 mm 2 mps 637 mmHg 41%
    16:00 +26°C° 0.1 mm 2 mps 637 mmHg 48%
    17:00 +25°C° 0.1 mm 2 mps 637 mmHg 55%
    18:00 +24°C° 0.1 mm 2 mps 636 mmHg 62%
    19:00 +21°C° 0.2 mm 2 mps 636 mmHg 71%
    20:00 +18°C° 0.2 mm 2 mps 636 mmHg 80%
    21:00 +16°C° 0.2 mm 2 mps 635 mmHg 89%
    22:00 +15°C° 0.1 mm 2 mps 635 mmHg 90%
    23:00 +14°C° 0.1 mm 2 mps 635 mmHg 91%

    27 June, Tuesday

    Time Temperature Precipitation Wind Pressure Humidity
    00:00 +14°C° 0.1 mm 2 mps 635 mmHg 92%
    01:00 +13°C° 0.1 mm 2 mps 635 mmHg 92%
    02:00 +13°C° 0.1 mm 2 mps 635 mmHg 93%
    03:00 +13°C° 0.1 mm 2 mps 635 mmHg 93%
    04:00 +14°C° 0 mm 1 mps 635 mmHg 90%
    05:00 +15°C° 0 mm 1 mps 636 mmHg 88%
    06:00 +16°C° 0 mm 1 mps 636 mmHg 85%
    07:00 +19°C° 0 mm 1 mps 637 mmHg 75%
    08:00 +22°C° 0 mm 1 mps 637 mmHg 64%
    09:00 +24°C° 0 mm 1 mps 638 mmHg 54%
    10:00 +26°C° 0 mm 1 mps 638 mmHg 50%
    11:00 +27°C° 0 mm 1 mps 638 mmHg 46%
    12:00 +28°C° 0 mm 2 mps 638 mmHg 42%
    13:00 +28°C° 0.1 mm 2 mps 638 mmHg 44%
    14:00 +28°C° 0.1 mm 1 mps 638 mmHg 45%
    15:00 +29°C° 0.1 mm 1 mps 637 mmHg 46%
    16:00 +27°C° 0.3 mm 2 mps 637 mmHg 52%
    17:00 +26°C° 0.3 mm 2 mps 637 mmHg 58%
    18:00 +25°C° 0.3 mm 2 mps 637 mmHg 64%
    19:00 +23°C° 0.2 mm 2 mps 636 mmHg 72%
    20:00 +19°C° 0.2 mm 2 mps 636 mmHg 80%
    21:00 +17°C° 0.2 mm 2 mps 635 mmHg 88%
    22:00 +16°C° 0 mm 2 mps 635 mmHg 88%
    23:00 +15°C° 0 mm 2 mps 635 mmHg 88%
    Show more